FW9268 Weather Reports


Display with metric or nautical units.
time (UTC)temp
F
wind
direction
speed
MPH
gust
MPH
rain 1hr
in
rain 24hr
in
rain mn
in
humidity
%
barometer
mb
20260906004543 69 0 0.0 0.0 0.00 0.00 0.00 90 1026.8
20260906004524 69 27 0.0 0.0 0.00 0.00 0.00 90 1017.3
20260906003054 71 0 0.0 0.0 0.00 0.00 0.00 86 1026.6
20260906003024 71 27 0.0 0.0 0.00 0.00 0.00 86 1017.1
20260906001551 72 0 0.0 0.0 0.00 0.00 0.00 84 1026.8
20260906001533 72 27 0.0 0.0 0.00 0.00 0.00 84 1017.2
20260906000053 73 0 0.0 0.0 0.00 0.00 0.00 83 1026.8
20260906000023 73 27 0.0 0.0 0.00 0.00 0.00 83 1017.4
20260905234545 74 0 0.0 0.0 0.00 0.00 0.00 78 1026.7
20260905234522 74 27 0.0 0.0 0.00 0.00 0.00 79 1017.1
20260905233051 77 0 0.0 2.0 0.00 0.00 0.00 71 1026.5
20260905233022 77 27 0.0 2.0 0.00 0.00 0.00 71 1017.1
20260905231555 77 0 0.0 1.0 0.00 0.00 0.00 74 1026.7
20260905231535 77 27 0.0 1.0 0.00 0.00 0.00 74 1017.1
20260905230049 78 27 1.0 3.0 0.00 0.00 0.00 69 1026.9
20260905230021 78 27 0.0 3.0 0.00 0.00 0.00 69 1017.3
20260905224553 78 0 0.0 2.0 0.00 0.00 0.00 69 1026.8
20260905224524 78 20 0.0 2.0 0.00 0.00 0.00 70 1017.3
20260905223052 78 20 0.0 3.0 0.00 0.00 0.00 69 1026.8
20260905223030 78 20 0.0 2.0 0.00 0.00 0.00 69 1017.2
20260905221554 78 0 0.0 3.0 0.00 0.00 0.00 68 1026.9
20260905221519 78 21 0.0 3.0 0.00 0.00 0.00 70 1017.3
20260905220045 78 0 0.0 3.0 0.00 0.00 0.00 68 1026.9
20260905220024 78 294 0.0 3.0 0.00 0.00 0.00 69 1017.4
20260905214553 78 0 0.0 3.0 0.00 0.00 0.00 69 1027.2
20260905214519 78 288 0.0 3.0 0.00 0.00 0.00 70 1017.6
20260905213100 77 286 1.0 4.0 0.00 0.00 0.00 70 1027.3
20260905213020 77 286 1.0 4.0 0.00 0.00 0.00 71 1017.8
20260905211543 76 0 0.0 4.0 0.00 0.00 0.00 72 1027.4
20260905211534 76 289 0.0 2.0 0.00 0.00 0.00 72 1017.9
20260905210058 77 0 0.0 8.0 0.00 0.00 0.00 71 1027.4
20260905210013 77 265 0.0 6.0 0.00 0.00 0.00 72 1018.0
20260905204553 76 213 2.0 6.0 0.00 0.00 0.00 72 1027.6
20260905204520 76 213 1.0 6.0 0.00 0.00 0.00 72 1018.1
20260905203058 76 142 0.0 3.0 0.00 0.00 0.00 74 1027.7
20260905203008 76 142 0.0 3.0 0.00 0.00 0.00 79 1018.1
20260905201544 75 0 1.0 4.0 0.00 0.00 0.00 75 1027.6
20260905201505 75 134 1.0 4.0 0.00 0.00 0.00 76 1018.1
20260905200051 75 121 1.0 6.0 0.00 0.00 0.00 77 1027.5
20260905194559 74 111 1.0 4.0 0.00 0.00 0.00 79 1018.3
20260905194545 74 115 1.0 4.0 0.00 0.00 0.00 78 1027.8
20260905193057 74 117 1.0 3.0 0.00 0.00 0.00 81 1018.4
20260905193042 74 117 1.0 3.0 0.00 0.00 0.00 80 1028.0
20260905191556 74 117 1.0 4.0 0.00 0.00 0.00 81 1018.4
20260905191548 74 117 1.0 4.0 0.00 0.00 0.00 81 1027.9
20260905190059 73 80 0.0 3.0 0.00 0.00 0.00 83 1018.4
20260905190048 73 78 0.0 3.0 0.00 0.00 0.00 82 1027.9
20260905184555 73 322 1.0 6.0 0.00 0.00 0.00 82 1018.4
20260905184549 73 322 1.0 6.0 0.00 0.00 0.00 81 1027.9
20260905183109 73 355 0.0 3.0 0.00 0.00 0.00 83 1018.5
20260905183044 73 0 0.0 3.0 0.00 0.00 0.00 82 1028.0
20260905181553 72 9 1.0 3.0 0.00 0.00 0.00 83 1028.0
20260905181551 72 9 1.0 3.0 0.00 0.00 0.00 83 1018.6
20260905180054 72 64 1.0 5.0 0.00 0.00 0.00 83 1018.5
20260905180049 72 0 1.0 5.0 0.00 0.00 0.00 83 1027.9
20260905174548 71 96 1.0 6.0 0.00 0.00 0.00 86 1018.5
20260905174545 71 96 2.0 6.0 0.00 0.00 0.00 85 1027.9
20260905173045 71 157 0.0 2.0 0.00 0.00 0.00 88 1018.7
20260905173043 71 0 0.0 3.0 0.00 0.00 0.00 87 1028.2
20260905171607 70 0 0.0 2.0 0.00 0.00 0.00 89 1028.4
20260905171548 70 168 0.0 2.0 0.00 0.00 0.00 90 1018.9
20260905170056 69 0 0.0 5.0 0.00 0.00 0.00 90 1028.5
20260905170045 69 165 0.0 5.0 0.00 0.00 0.00 90 1019.0
20260905164546 69 0 1.0 4.0 0.00 0.00 0.00 91 1028.3
20260905164538 69 153 1.0 4.0 0.00 0.00 0.00 91 1018.8
20260905163055 68 114 0.0 6.0 0.00 0.00 0.00 92 1028.4
20260905163037 68 115 0.0 3.0 0.00 0.00 0.00 92 1018.9
20260905161547 68 168 0.0 5.0 0.00 0.00 0.00 92 1028.4
20260905161534 68 168 0.0 3.0 0.00 0.00 0.00 93 1018.9
20260905160045 67 161 1.0 5.0 0.00 0.00 0.00 92 1028.4
20260905160031 67 161 1.0 5.0 0.00 0.00 0.00 93 1018.9
20260905154615 67 0 0.0 3.0 0.00 0.00 0.00 92 1028.4
20260905154531 67 146 0.0 3.0 0.00 0.00 0.00 93 1018.8
20260905153048 67 94 1.0 4.0 0.00 0.00 0.00 93 1028.2
20260905153029 67 94 1.0 4.0 0.00 0.00 0.00 93 1018.6
20260905151548 67 102 1.0 3.0 0.00 0.00 0.00 94 1028.1
20260905151534 67 102 1.0 3.0 0.00 0.00 0.00 94 1018.5
20260905150049 67 0 0.0 5.0 0.00 0.00 0.00 95 1028.0
20260905150025 67 76 0.0 3.0 0.00 0.00 0.00 96 1018.5
20260905144625 66 123 0.0 4.0 0.00 0.00 0.00 95 1018.3
20260905144550 66 123 0.0 4.0 0.00 0.00 0.00 95 1027.8
20260905143056 66 119 0.0 4.0 0.00 0.00 0.00 96 1027.7
20260905143022 66 119 0.0 4.0 0.00 0.00 0.00 96 1018.1
20260905141547 66 65 1.0 8.0 0.00 0.00 0.00 96 1027.4
20260905141522 66 65 1.0 7.0 0.00 0.00 0.00 96 1017.8
20260905140045 66 100 1.0 6.0 0.00 0.00 0.00 96 1027.1
20260905140020 66 98 2.0 8.0 0.00 0.00 0.00 97 1017.5
20260905134550 66 82 1.0 8.0 0.00 0.00 0.00 96 1027.0
20260905134527 66 82 1.0 8.0 0.00 0.00 0.00 97 1017.5
20260905133048 66 53 0.0 5.0 0.00 0.00 0.00 97 1027.1
20260905133017 66 54 1.0 4.0 0.00 0.00 0.00 97 1017.6
20260905131545 66 0 1.0 4.0 0.00 0.00 0.00 97 1027.3
20260905131516 65 69 1.0 4.0 0.00 0.00 0.00 98 1017.7
20260905130048 65 0 0.0 2.0 0.00 0.00 0.00 97 1027.2
20260905130014 65 46 0.0 1.0 0.00 0.00 0.00 98 1017.7
20260905124550 65 0 0.0 6.0 0.00 0.00 0.00 97 1027.1
20260905124516 65 74 0.0 6.0 0.00 0.00 0.00 97 1017.6
20260905123048 65 0 0.0 2.0 0.00 0.00 0.00 97 1027.5
20260905123012 65 65 1.0 2.0 0.00 0.00 0.00 97 1018.0
20260905121542 65 0 0.0 4.0 0.00 0.00 0.00 97 1026.7
20260905121509 65 63 1.0 4.0 0.00 0.00 0.00 98 1017.1
20260905120053 65 88 0.0 4.0 0.00 0.00 0.00 97 1026.4
20260905120006 65 87 1.0 4.0 0.00 0.00 0.00 98 1016.8
20260905114552 65 0 0.0 3.0 0.00 0.00 0.00 97 1025.9
20260905114504 65 55 0.0 3.0 0.00 0.00 0.00 97 1016.5
20260905113042 65 0 0.0 2.0 0.00 0.00 0.00 97 1025.9
20260905113003 65 59 0.0 2.0 0.00 0.00 0.00 97 1016.3
20260905111620 65 46 0.0 5.0 0.00 0.00 0.00 97 1025.6
20260905111503 65 67 0.0 5.0 0.00 0.00 0.00 97 1016.1
20260905110053 65 33 0.0 5.0 0.00 0.00 0.00 97 1025.6
20260905110003 65 33 0.0 5.0 0.00 0.00 0.00 97 1016.0
20260905104606 65 86 0.0 3.0 0.00 0.00 0.00 97 1025.5
20260905104500 65 61 0.0 3.0 0.00 0.00 0.00 97 1015.8
20260905103100 66 59 1.0 5.0 0.00 0.00 0.00 97 1015.8
20260905103050 66 0 1.0 5.0 0.00 0.00 0.00 97 1025.4
20260905101604 66 90 0.0 6.0 0.00 0.00 0.00 97 1016.0
20260905101551 66 0 0.0 6.0 0.00 0.00 0.00 97 1025.6
20260905100105 66 82 0.0 4.0 0.00 0.00 0.00 98 1016.0
20260905100046 66 0 1.0 4.0 0.00 0.00 0.00 97 1025.6
20260905094702 66 0 0.0 2.0 0.00 0.00 0.00 97 1025.6
20260905094557 66 64 0.0 2.0 0.00 0.00 0.00 98 1016.0
20260905093059 66 0 0.0 2.0 0.00 0.00 0.00 97 1025.7
20260905093057 66 67 0.0 2.0 0.00 0.00 0.00 98 1016.2
20260905091556 66 67 0.0 3.0 0.00 0.00 0.00 98 1016.2
20260905090123 66 74 0.0 2.0 0.00 0.00 0.00 97 1016.2
20260905090046 66 0 0.0 2.0 0.00 0.00 0.00 97 1025.8
20260905084556 67 0 0.0 2.0 0.00 0.00 0.00 97 1025.8
20260905084553 67 68 0.0 2.0 0.00 0.00 0.00 97 1016.2
20260905083053 67 71 0.0 0.0 0.00 0.00 0.00 97 1016.3
20260905083049 67 0 0.0 0.0 0.00 0.00 0.00 97 1025.8
20260905081552 67 71 0.0 0.0 0.00 0.00 0.00 97 1016.2
20260905081548 67 0 0.0 2.0 0.00 0.00 0.00 97 1025.8
20260905080104 67 0 0.0 1.0 0.00 0.00 0.00 97 1025.7
20260905080050 67 71 0.0 1.0 0.00 0.00 0.00 97 1016.1
20260905074559 67 0 0.0 2.0 0.00 0.00 0.00 97 1025.7
20260905074549 67 71 0.0 2.0 0.00 0.00 0.00 97 1016.1
20260905073050 67 0 0.0 2.0 0.00 0.00 0.00 97 1025.6
20260905073048 67 105 0.0 2.0 0.00 0.00 0.00 97 1016.0
20260905071549 68 0 0.0 3.0 0.00 0.00 0.00 97 1025.6
20260905071547 68 105 0.0 3.0 0.00 0.00 0.00 97 1015.9
20260905070048 68 105 0.0 3.0 0.00 0.00 0.00 97 1015.7
20260905070043 68 0 0.0 3.0 0.00 0.00 0.00 96 1025.3
20260905064550 68 105 0.0 3.0 0.00 0.00 0.00 96 1025.1
20260905064544 68 105 1.0 3.0 0.00 0.00 0.00 97 1015.4
20260905063044 68 0 0.0 2.0 0.00 0.00 0.00 96 1025.1
20260905061559 68 0 0.0 3.0 0.00 0.00 0.00 96 1025.2
20260905061543 68 105 0.0 3.0 0.00 0.00 0.00 97 1015.6
20260905060103 68 105 0.0 3.0 0.00 0.00 0.00 96 1025.2
20260905060041 68 105 0.0 2.0 0.00 0.00 0.00 96 1015.6
20260905054556 68 81 1.0 7.0 0.00 0.00 0.00 96 1025.3
20260905054540 68 82 2.0 6.0 0.00 0.00 0.00 96 1015.7
20260905053045 68 105 0.0 4.0 0.00 0.00 0.00 95 1025.2
20260905053039 69 105 1.0 4.0 0.00 0.00 0.00 96 1015.6
20260905051557 69 0 0.0 5.0 0.00 0.00 0.00 95 1025.2
20260905051537 69 101 0.0 5.0 0.00 0.00 0.00 96 1015.6
20260905050051 69 143 2.0 7.0 0.00 0.00 0.00 95 1025.0
20260905050035 69 143 1.0 7.0 0.00 0.00 0.00 95 1015.3
20260905044550 69 113 1.0 4.0 0.00 0.00 0.00 95 1024.9
20260905044534 69 113 2.0 4.0 0.00 0.00 0.00 95 1015.2
20260905043045 69 101 2.0 6.0 0.00 0.00 0.00 94 1024.9
20260905043033 69 101 1.0 6.0 0.00 0.00 0.00 95 1015.1
20260905041556 70 74 0.0 7.0 0.00 0.00 0.00 94 1024.9
20260905041546 70 74 1.0 5.0 0.00 0.00 0.00 95 1015.1
20260905040105 70 20 0.0 5.0 0.00 0.00 0.00 94 1024.8
20260905040033 70 20 0.0 3.0 0.00 0.00 0.00 95 1015.1
20260905034546 70 0 0.0 4.0 0.00 0.00 0.00 94 1024.9
20260905034534 70 26 0.0 3.0 0.00 0.00 0.00 95 1015.2
20260905033056 70 16 0.0 5.0 0.00 0.00 0.00 94 1024.8
20260905033033 70 16 0.0 5.0 0.00 0.00 0.00 94 1015.2
20260905031549 71 0 1.0 5.0 0.00 0.00 0.00 94 1024.8
20260905031534 71 22 0.0 5.0 0.00 0.00 0.00 94 1015.1
20260905030108 71 0 0.0 3.0 0.00 0.00 0.00 94 1025.0
20260905030030 71 71 0.0 3.0 0.00 0.00 0.00 94 1015.2
20260905024603 71 78 1.0 4.0 0.00 0.00 0.00 94 1024.8
20260905024531 71 79 1.0 6.0 0.00 0.00 0.00 94 1015.1
20260905023053 71 90 1.0 5.0 0.00 0.00 0.00 94 1024.8
20260905023028 71 90 1.0 4.0 0.00 0.00 0.00 95 1015.1
20260905021549 71 81 2.0 9.0 0.00 0.00 0.00 94 1024.5
20260905021534 71 81 2.0 5.0 0.00 0.00 0.00 95 1014.9
20260905020043 71 72 0.0 7.0 0.00 0.00 0.00 94 1024.3
20260905020026 71 72 0.0 6.0 0.00 0.00 0.00 94 1014.7
20260905014544 71 51 2.0 11.0 0.00 0.00 0.00 93 1024.6
20260905014526 71 51 1.0 6.0 0.00 0.00 0.00 94 1014.8
20260905013110 72 80 1.0 8.0 0.00 0.00 0.00 93 1024.2
20260905013023 72 80 1.0 8.0 0.00 0.00 0.00 94 1014.5
20260905011543 72 61 0.0 4.0 0.00 0.00 0.00 93 1024.1
20260905011523 72 61 1.0 4.0 0.00 0.00 0.00 93 1014.4
20260905010057 72 43 2.0 5.0 0.00 0.00 0.00 92 1024.0
20260905010021 72 43 1.0 5.0 0.00 0.00 0.00 93 1014.2